ATLAS D DEB, 2327

Orbit data source: Space-Track

ATLAS D DEB, 2327 is space debris in LEO originally from a launch on Thu, 14 Jul 1966 UTC launched from the Air Force Western Test Range (AFWTR). Debris objects in space refer to the collection of defunct objects orbiting the Earth. Examples of debris include non-operational satellites, rocket bodies, and fragments generated from explosions, collisions, or faulty payload assembly.

Loading next visibility...
Identifier
2327, 1966-063B
Orbit
LEO
Country
Flag of USUS
Related business
Manufacturer
Goodyear
Mission
Spacecraft
Bus & Motor
CONTAINER, Unknown motor
Mass
2 kg wet, 2 kg dry
Launch date (UTC)
1966-07-14 (59 years ago)
Launch vehicle
Unknown
Launch site
Air Force Western Test Range (AFWTR)
Object type
Payload
Rocket body
Debris
Shape & HBR
Unknown
Radar Cross Section
Medium (>0.1 m² and <1 m²)

Expand to show TLE details & history
Last TLE update: 1 day ago

TLE from 1 day ago
0 ATLAS D DEB
1 02327U 66063B   25309.58432449  .00001762  00000-0  90815-3 0  9995
2 02327 144.1937 211.3361 0030284 332.2384  27.6695 14.05087695  6617
Epoch: 2025-11-05T14:01Z
TLE epoch observation values (Epoch: 2025-11-05T14:01:25.635Z)
Latitude
-0.00002°
Longitude
-44.07558°
Altitude
855.837 km
Speed
7.437 km/s
True Right ascension
14h 05m 20s
True Declination
0° 00' 00"
Sunlit
Object was in daylight at epoch
Visualization orbit readout
Latitude
Unknown
Longitude
Unknown
Altitude
Unknown
Speed
Unknown
Apparent Right ascension
Unknown
Apparent Declination
Unknown
Sunlit
N/A
Visualization observer readout
Local Sidereal Time
17:23:04
Azimuth
Unknown
Elevation
Unknown
Doppler factor
Unknown
Orbital elements
Apogee altitude
901.168 km
Perigee altitude
857.212 km
Semi-major axis
7,257.327 km
Eccentricity
0.00303
Inclination
144.1937°
RAAN
211.3361°
Arg. of periapsis
332.2384°
True anomaly
27.83119°
Mean anomaly
27.6695°
Eccentric anomaly
27.75029°
Mean motion
3.51057 °/min
Orbital period
102.55 mins
BSTAR
0.00090815
Loading maneuver chart data...
Computing Atmospheric mass density...
Loading historical data...
Loading historical data...
Loading historical data...
Loading historical data...
Loading historical data...
Loading historical data...
Loading historical data...

Documentation

Showing up to 5 results
|